TimeCDT,TemperatureF,Dew PointF,Humidity,Sea Level PressureIn,VisibilityMPH,Wind Direction,Wind SpeedMPH,Gust SpeedMPH,PrecipitationIn,Events,Conditions,WindDirDegrees,DateUTC
12:53 AM,63.0,55.9,78,30.16,10.0,East,10.4,-,N/A,,Scattered Clouds,100,2013-05-24 05:53:00
1:53 AM,62.1,55.9,80,30.17,10.0,East,11.5,-,N/A,,Mostly Cloudy,100,2013-05-24 06:53:00
2:53 AM,60.1,55.9,86,30.18,10.0,East,11.5,-,N/A,,Mostly Cloudy,100,2013-05-24 07:53:00
3:53 AM,59.0,55.0,87,30.17,10.0,East,11.5,-,N/A,,Mostly Cloudy,100,2013-05-24 08:53:00
4:53 AM,59.0,54.0,83,30.18,10.0,ESE,12.7,-,N/A,,Mostly Cloudy,110,2013-05-24 09:53:00
5:53 AM,57.9,54.0,87,30.18,10.0,ESE,12.7,-,N/A,,Scattered Clouds,110,2013-05-24 10:53:00
6:53 AM,57.9,54.0,87,30.17,10.0,East,16.1,-,N/A,,Mostly Cloudy,100,2013-05-24 11:53:00
7:53 AM,61.0,55.0,81,30.18,10.0,ESE,13.8,-,N/A,,Mostly Cloudy,110,2013-05-24 12:53:00
8:53 AM,64.0,55.9,75,30.18,10.0,SE,15.0,21.9,N/A,,Scattered Clouds,130,2013-05-24 13:53:00
9:53 AM,66.9,57.9,73,30.19,10.0,SE,12.7,-,N/A,,Mostly Cloudy,130,2013-05-24 14:53:00
10:14 AM,66.2,57.2,73,30.22,10.0,SSE,16.1,-,N/A,,Overcast,150,2013-05-24 15:14:00
10:27 AM,66.2,57.2,73,30.22,10.0,SE,15.0,-,N/A,,Mostly Cloudy,130,2013-05-24 15:27:00
10:53 AM,69.1,59.0,70,30.18,10.0,SE,15.0,20.7,N/A,,Mostly Cloudy,140,2013-05-24 15:53:00
11:30 AM,69.8,59.0,68,30.21,10.0,SSE,15.0,-,N/A,,Overcast,150,2013-05-24 16:30:00
11:53 AM,69.1,60.1,73,30.19,10.0,SE,12.7,-,N/A,,Overcast,140,2013-05-24 16:53:00
12:53 PM,71.1,61.0,70,30.18,10.0,SE,11.5,-,N/A,,Overcast,130,2013-05-24 17:53:00
1:53 PM,72.0,63.0,73,30.16,10.0,SE,13.8,-,N/A,,Overcast,130,2013-05-24 18:53:00
2:01 PM,71.6,62.6,73,30.17,10.0,SE,11.5,-,N/A,,Overcast,130,2013-05-24 19:01:00
2:53 PM,73.9,64.0,71,30.15,10.0,SE,15.0,-,N/A,,Overcast,140,2013-05-24 19:53:00
3:53 PM,77.0,66.0,69,30.11,10.0,SE,15.0,-,N/A,,Mostly Cloudy,130,2013-05-24 20:53:00
4:08 PM,75.2,66.2,73,30.13,10.0,SE,10.4,-,N/A,,Mostly Cloudy,130,2013-05-24 21:08:00
4:53 PM,77.0,66.0,69,30.08,10.0,SE,12.7,-,N/A,,Overcast,140,2013-05-24 21:53:00
5:21 PM,75.2,66.2,73,30.10,10.0,SE,15.0,23.0,N/A,,Overcast,130,2013-05-24 22:21:00
5:53 PM,75.9,66.9,74,30.07,10.0,SE,12.7,-,N/A,,Overcast,140,2013-05-24 22:53:00
6:53 PM,75.9,66.9,74,30.05,10.0,SE,13.8,-,N/A,,Overcast,140,2013-05-24 23:53:00
7:53 PM,75.0,66.9,76,30.04,10.0,SE,15.0,-,N/A,,Scattered Clouds,140,2013-05-25 00:53:00
8:11 PM,73.4,66.2,78,30.06,10.0,SE,12.7,-,N/A,,Mostly Cloudy,140,2013-05-25 01:11:00
8:53 PM,73.0,66.9,81,30.04,10.0,SE,13.8,-,N/A,,Mostly Cloudy,140,2013-05-25 01:53:00
9:53 PM,72.0,66.9,84,30.06,10.0,SSE,12.7,-,N/A,,Mostly Cloudy,150,2013-05-25 02:53:00
10:53 PM,72.0,66.0,81,30.07,10.0,SSE,16.1,-,N/A,,Overcast,150,2013-05-25 03:53:00
11:53 PM,71.1,66.0,84,30.07,9.0,SSE,11.5,23.0,N/A,,Mostly Cloudy,160,2013-05-25 04:53:00